User: anonymous   Login
Location: Songkhla
(7.2000°N, 100.6000°E)
Time: 03:45:55
(UTC+07:00)
Language:

BRICSAT 2 - Orbit

View from above orbital plane
View from above orbital plane
View from above satellite
View from above satellite

Ground track
Ground track

The orbit data is extracted from the following two-line orbital elements,

1 44355U 19036S   21209.20223040  .00044266 -53295-5  44682-3 0  9996
2 44355  28.5246 163.0178 0251193  83.1847 279.7262 15.33049848115689
Epoch (UTC): 28 July 2021 04:51:12
Eccentricity: 0.0251193
inclination: 28.5246°
perigee height: 295 km
apogee height: 638 km
right ascension of ascending node: 163.0178°
argument of perigee: 83.1847°
revolutions per day: 15.33049848
mean anomaly at epoch: 279.7262°
orbit number at epoch: 11568

The dashed part of the orbit path shows where the satellite is in the earth's shadow,  

DLR